Year,Month,Day,Hour,Minute,Value (Times are PST for temperature in C)
2020,05,10,00,00,14.80
2020,05,10,00,01,14.70
2020,05,10,00,02,14.70
2020,05,10,00,03,14.70
2020,05,10,00,04,14.70
2020,05,10,00,05,14.70
2020,05,10,00,06,14.60
2020,05,10,00,07,14.60
2020,05,10,00,08,14.60
2020,05,10,00,09,14.60
2020,05,10,00,10,14.60
2020,05,10,00,11,14.60
2020,05,10,00,12,14.50
2020,05,10,00,13,14.50
2020,05,10,00,14,14.50
2020,05,10,00,15,14.40
2020,05,10,00,16,14.40
2020,05,10,00,17,14.40
2020,05,10,00,18,14.40
2020,05,10,00,19,14.30
2020,05,10,00,20,14.30
2020,05,10,00,21,14.30
2020,05,10,00,22,14.30
2020,05,10,00,23,14.20
2020,05,10,00,24,14.20
2020,05,10,00,25,14.10
2020,05,10,00,26,14.10
2020,05,10,00,27,14.10
2020,05,10,00,28,14.00
2020,05,10,00,29,14.00
2020,05,10,00,30,14.00
2020,05,10,00,31,13.90
2020,05,10,00,32,13.90
2020,05,10,00,33,13.90
2020,05,10,00,34,13.90
2020,05,10,00,35,13.90
2020,05,10,00,36,14.00
2020,05,10,00,37,14.10
2020,05,10,00,38,14.10
2020,05,10,00,39,14.10
2020,05,10,00,40,14.00
2020,05,10,00,41,14.00
2020,05,10,00,42,13.90
2020,05,10,00,43,13.80
2020,05,10,00,44,13.80
2020,05,10,00,45,13.80
2020,05,10,00,46,13.70
2020,05,10,00,47,13.70
2020,05,10,00,48,13.70
2020,05,10,00,49,13.60
2020,05,10,00,50,13.60
2020,05,10,00,51,13.60
2020,05,10,00,52,13.50
2020,05,10,00,53,13.50
2020,05,10,00,54,13.40
2020,05,10,00,55,13.40
2020,05,10,00,56,13.40
2020,05,10,00,57,13.40
2020,05,10,00,58,13.40
2020,05,10,00,59,13.40
2020,05,10,01,00,13.40
2020,05,10,01,01,13.50
2020,05,10,01,02,13.50
2020,05,10,01,03,13.50
2020,05,10,01,04,13.50
2020,05,10,01,05,13.50
2020,05,10,01,06,13.50
2020,05,10,01,07,13.60
2020,05,10,01,08,13.60
2020,05,10,01,09,13.60
2020,05,10,01,10,13.60
2020,05,10,01,11,13.60
2020,05,10,01,12,13.60
2020,05,10,01,13,13.60
2020,05,10,01,14,13.60
2020,05,10,01,15,13.60
2020,05,10,01,16,13.60
2020,05,10,01,17,13.60
2020,05,10,01,18,13.70
2020,05,10,01,19,13.70
2020,05,10,01,20,13.70
2020,05,10,01,21,13.80
2020,05,10,01,22,13.80
2020,05,10,01,23,13.80
2020,05,10,01,24,13.80
2020,05,10,01,25,13.90
2020,05,10,01,26,13.90
2020,05,10,01,27,14.00
2020,05,10,01,28,14.00
2020,05,10,01,29,14.10
2020,05,10,01,30,14.20
2020,05,10,01,31,14.20
2020,05,10,01,32,14.30
2020,05,10,01,33,14.40
2020,05,10,01,34,14.50
2020,05,10,01,35,14.50
2020,05,10,01,36,14.60
2020,05,10,01,37,14.70
2020,05,10,01,38,14.80
2020,05,10,01,39,14.80
2020,05,10,01,40,14.90
2020,05,10,01,41,14.90
2020,05,10,01,42,15.00
2020,05,10,01,43,15.00
2020,05,10,01,44,15.00
2020,05,10,01,45,15.10
2020,05,10,01,46,15.00
2020,05,10,01,47,15.00
2020,05,10,01,48,15.00
2020,05,10,01,49,15.00
2020,05,10,01,50,15.00
2020,05,10,01,51,15.00
2020,05,10,01,52,15.00
2020,05,10,01,53,15.00
2020,05,10,01,54,15.00
2020,05,10,01,55,15.10
2020,05,10,01,56,15.10
2020,05,10,01,57,15.10
2020,05,10,01,58,15.20
2020,05,10,01,59,15.20
2020,05,10,02,00,15.30
2020,05,10,02,01,15.30
2020,05,10,02,02,15.30
2020,05,10,02,03,15.30
2020,05,10,02,04,15.30
2020,05,10,02,05,15.30
2020,05,10,02,06,15.40
2020,05,10,02,07,15.40
2020,05,10,02,08,15.40
2020,05,10,02,09,15.50
2020,05,10,02,10,15.50
2020,05,10,02,11,15.60
2020,05,10,02,12,15.60
2020,05,10,02,13,15.70
2020,05,10,02,14,15.70
2020,05,10,02,15,15.80
2020,05,10,02,16,15.90
2020,05,10,02,17,16.00
2020,05,10,02,18,16.10
2020,05,10,02,19,16.20
2020,05,10,02,20,16.30
2020,05,10,02,21,16.40
2020,05,10,02,22,16.50
2020,05,10,02,23,16.60
2020,05,10,02,24,16.60
2020,05,10,02,25,16.70
2020,05,10,02,26,16.70
2020,05,10,02,27,16.70
2020,05,10,02,28,16.70
2020,05,10,02,29,16.70
2020,05,10,02,30,16.70
2020,05,10,02,31,16.70
2020,05,10,02,32,16.70
2020,05,10,02,33,16.70
2020,05,10,02,34,16.70
2020,05,10,02,35,16.80
2020,05,10,02,36,16.80
2020,05,10,02,37,16.90
2020,05,10,02,38,16.90
2020,05,10,02,39,17.00
2020,05,10,02,40,17.10
2020,05,10,02,41,17.10
2020,05,10,02,42,17.20
2020,05,10,02,43,17.20
2020,05,10,02,44,17.20
2020,05,10,02,45,17.20
2020,05,10,02,46,17.20
2020,05,10,02,47,17.20
2020,05,10,02,48,17.20
2020,05,10,02,49,17.20
2020,05,10,02,50,17.20
2020,05,10,02,51,17.20
2020,05,10,02,52,17.20
2020,05,10,02,53,17.10
2020,05,10,02,54,17.10
2020,05,10,02,55,17.00
2020,05,10,02,56,17.00
2020,05,10,02,57,16.90
2020,05,10,02,58,16.90
2020,05,10,02,59,16.90
2020,05,10,03,00,16.90
2020,05,10,03,01,16.90
2020,05,10,03,02,16.90
2020,05,10,03,03,16.90
2020,05,10,03,04,16.90
2020,05,10,03,05,17.00
2020,05,10,03,06,17.00
2020,05,10,03,07,17.00
2020,05,10,03,08,17.00
2020,05,10,03,09,17.00
2020,05,10,03,10,17.00
2020,05,10,03,11,17.00
2020,05,10,03,12,17.00
2020,05,10,03,13,17.00
2020,05,10,03,14,16.90
2020,05,10,03,15,16.90
2020,05,10,03,16,16.90
2020,05,10,03,17,16.90
2020,05,10,03,18,16.90
2020,05,10,03,19,16.90
2020,05,10,03,20,16.80
2020,05,10,03,21,16.80
2020,05,10,03,22,16.80
2020,05,10,03,23,16.70
2020,05,10,03,24,16.70
2020,05,10,03,25,16.70
2020,05,10,03,26,16.60
2020,05,10,03,27,16.60
2020,05,10,03,28,16.50
2020,05,10,03,29,16.50
2020,05,10,03,30,16.50
2020,05,10,03,31,16.40
2020,05,10,03,32,16.40
2020,05,10,03,33,16.40
2020,05,10,03,34,16.40
2020,05,10,03,35,16.30
2020,05,10,03,36,16.30
2020,05,10,03,37,16.30
2020,05,10,03,38,16.30
2020,05,10,03,39,16.30
2020,05,10,03,40,16.20
2020,05,10,03,41,16.20
2020,05,10,03,42,16.20
2020,05,10,03,43,16.20
2020,05,10,03,44,16.20
2020,05,10,03,45,16.20
2020,05,10,03,46,16.20
2020,05,10,03,47,16.20
2020,05,10,03,48,16.20
2020,05,10,03,49,16.20
2020,05,10,03,50,16.20
2020,05,10,03,51,16.10
2020,05,10,03,52,16.20
2020,05,10,03,53,16.20
2020,05,10,03,54,16.20
2020,05,10,03,55,16.20
2020,05,10,03,56,16.20
2020,05,10,03,57,16.10
2020,05,10,03,58,16.10
2020,05,10,03,59,16.10
2020,05,10,04,00,16.10
2020,05,10,04,01,16.10
2020,05,10,04,02,16.10
2020,05,10,04,03,16.10
2020,05,10,04,04,16.10
2020,05,10,04,05,16.10
2020,05,10,04,06,16.10
2020,05,10,04,07,16.00
2020,05,10,04,08,16.00
2020,05,10,04,09,16.00
2020,05,10,04,10,16.00
2020,05,10,04,11,15.90
2020,05,10,04,12,15.90
2020,05,10,04,13,15.90
2020,05,10,04,14,15.90
2020,05,10,04,15,15.90
2020,05,10,04,16,15.90
2020,05,10,04,17,15.90
2020,05,10,04,18,15.90
2020,05,10,04,19,15.80
2020,05,10,04,20,15.80
2020,05,10,04,21,15.80
2020,05,10,04,22,15.80
2020,05,10,04,23,15.80
2020,05,10,04,24,15.80
2020,05,10,04,25,15.70
2020,05,10,04,26,15.70
2020,05,10,04,27,15.70
2020,05,10,04,28,15.70
2020,05,10,04,29,15.60
2020,05,10,04,30,15.60
2020,05,10,04,31,15.60
2020,05,10,04,32,15.60
2020,05,10,04,33,15.60
2020,05,10,04,34,15.50
2020,05,10,04,35,15.50
2020,05,10,04,36,15.50
2020,05,10,04,37,15.40
2020,05,10,04,38,15.40
2020,05,10,04,39,15.40
2020,05,10,04,40,15.40
2020,05,10,04,41,15.40
2020,05,10,04,42,15.40
2020,05,10,04,43,15.40
2020,05,10,04,44,15.40
2020,05,10,04,45,15.30
2020,05,10,04,46,15.30
2020,05,10,04,47,15.30
2020,05,10,04,48,15.30
2020,05,10,04,49,15.30
2020,05,10,04,50,15.30
2020,05,10,04,51,15.20
2020,05,10,04,52,15.20
2020,05,10,04,53,15.20
2020,05,10,04,54,15.20
2020,05,10,04,55,15.20
2020,05,10,04,56,15.20
2020,05,10,04,57,15.10
2020,05,10,04,58,15.10
2020,05,10,04,59,15.10
2020,05,10,05,00,15.10
2020,05,10,05,01,15.10
2020,05,10,05,02,15.10
2020,05,10,05,03,15.10
2020,05,10,05,04,15.10
2020,05,10,05,05,15.20
2020,05,10,05,06,15.20
2020,05,10,05,07,15.20
2020,05,10,05,08,15.20
2020,05,10,05,09,15.20
2020,05,10,05,10,15.20
2020,05,10,05,11,15.20
2020,05,10,05,12,15.20
2020,05,10,05,13,15.20
2020,05,10,05,14,15.20
2020,05,10,05,15,15.20
2020,05,10,05,16,15.20
2020,05,10,05,17,15.20
2020,05,10,05,18,15.20
2020,05,10,05,19,15.20
2020,05,10,05,20,15.20
2020,05,10,05,21,15.20
2020,05,10,05,22,15.20
2020,05,10,05,23,15.20
2020,05,10,05,24,15.20
2020,05,10,05,25,15.20
2020,05,10,05,26,15.20
2020,05,10,05,27,15.30
2020,05,10,05,28,15.30
2020,05,10,05,29,15.20
2020,05,10,05,30,15.20
2020,05,10,05,31,15.30
2020,05,10,05,32,15.20
2020,05,10,05,33,15.20
2020,05,10,05,34,15.20
2020,05,10,05,35,15.20
2020,05,10,05,36,15.20
2020,05,10,05,37,15.20
2020,05,10,05,38,15.20
2020,05,10,05,39,15.20
2020,05,10,05,40,15.20
2020,05,10,05,41,15.20
2020,05,10,05,42,15.20
2020,05,10,05,43,15.20
2020,05,10,05,44,15.30
2020,05,10,05,45,15.30
2020,05,10,05,46,15.30
2020,05,10,05,47,15.30
2020,05,10,05,48,15.30
2020,05,10,05,49,15.30
2020,05,10,05,50,15.30
2020,05,10,05,51,15.30
2020,05,10,05,52,15.30
2020,05,10,05,53,15.30
2020,05,10,05,54,15.30
2020,05,10,05,55,15.30
2020,05,10,05,56,15.30
2020,05,10,05,57,15.20
2020,05,10,05,58,15.20
2020,05,10,05,59,15.20
2020,05,10,06,00,15.20
2020,05,10,06,01,15.20
2020,05,10,06,02,15.20
2020,05,10,06,03,15.20
2020,05,10,06,04,15.20
2020,05,10,06,05,15.20
2020,05,10,06,06,15.20
2020,05,10,06,07,15.20
2020,05,10,06,08,15.20
2020,05,10,06,09,15.20
2020,05,10,06,10,15.20
2020,05,10,06,11,15.20
2020,05,10,06,12,15.20
2020,05,10,06,13,15.30
2020,05,10,06,14,15.30
2020,05,10,06,15,15.30
2020,05,10,06,16,15.30
2020,05,10,06,17,15.30
2020,05,10,06,18,15.40
2020,05,10,06,19,15.40
2020,05,10,06,20,15.40
2020,05,10,06,21,15.40
2020,05,10,06,22,15.50
2020,05,10,06,23,15.50
2020,05,10,06,24,15.50
2020,05,10,06,25,15.60
2020,05,10,06,26,15.60
2020,05,10,06,27,15.60
2020,05,10,06,28,15.60
2020,05,10,06,29,15.70
2020,05,10,06,30,15.70
2020,05,10,06,31,15.70
2020,05,10,06,32,15.70
2020,05,10,06,33,15.70
2020,05,10,06,34,15.70
2020,05,10,06,35,15.80
2020,05,10,06,36,15.80
2020,05,10,06,37,15.80
2020,05,10,06,38,15.80
2020,05,10,06,39,15.80
2020,05,10,06,40,15.80
2020,05,10,06,41,15.90
2020,05,10,06,42,15.90
2020,05,10,06,43,15.90
2020,05,10,06,44,15.90
2020,05,10,06,45,15.90
2020,05,10,06,46,16.00
2020,05,10,06,47,16.00
2020,05,10,06,48,16.00
2020,05,10,06,49,16.00
2020,05,10,06,50,16.10
2020,05,10,06,51,16.10
2020,05,10,06,52,16.10
2020,05,10,06,53,16.10
2020,05,10,06,54,16.10
2020,05,10,06,55,16.10
2020,05,10,06,56,16.10
2020,05,10,06,57,16.10
2020,05,10,06,58,16.10
2020,05,10,06,59,16.10
2020,05,10,07,00,16.10
2020,05,10,07,01,16.20
2020,05,10,07,02,16.20
2020,05,10,07,03,16.20
2020,05,10,07,04,16.20
2020,05,10,07,05,16.20
2020,05,10,07,06,16.30
2020,05,10,07,07,16.30
2020,05,10,07,08,16.30
2020,05,10,07,09,16.40
2020,05,10,07,10,16.40
2020,05,10,07,11,16.40
2020,05,10,07,12,16.50
2020,05,10,07,13,16.50
2020,05,10,07,14,16.60
2020,05,10,07,15,16.60
2020,05,10,07,16,16.70
2020,05,10,07,17,16.70
2020,05,10,07,18,16.70
2020,05,10,07,19,16.80
2020,05,10,07,20,16.80
2020,05,10,07,21,16.90
2020,05,10,07,22,16.90
2020,05,10,07,23,17.00
2020,05,10,07,24,17.00
2020,05,10,07,25,17.10
2020,05,10,07,26,17.20
2020,05,10,07,27,17.20
2020,05,10,07,28,17.30
2020,05,10,07,29,17.30
2020,05,10,07,30,17.40
2020,05,10,07,31,17.40
2020,05,10,07,32,17.50
2020,05,10,07,33,17.60
2020,05,10,07,34,17.60
2020,05,10,07,35,17.70
2020,05,10,07,36,17.80
2020,05,10,07,37,17.90
2020,05,10,07,38,17.90
2020,05,10,07,39,17.90
2020,05,10,07,40,18.00
2020,05,10,07,41,18.10
2020,05,10,07,42,18.10
2020,05,10,07,43,18.10
2020,05,10,07,44,18.20
2020,05,10,07,45,18.20
2020,05,10,07,46,18.20
2020,05,10,07,47,18.20
2020,05,10,07,48,18.30
2020,05,10,07,49,18.30
2020,05,10,07,50,18.40
2020,05,10,07,51,18.40
2020,05,10,07,52,18.50
2020,05,10,07,53,18.50
2020,05,10,07,54,18.60
2020,05,10,07,55,18.60
2020,05,10,07,56,18.70
2020,05,10,07,57,18.70
2020,05,10,07,58,18.80
2020,05,10,07,59,18.80
2020,05,10,08,00,18.90
2020,05,10,08,01,18.90
2020,05,10,08,02,18.90
2020,05,10,08,03,18.90
2020,05,10,08,04,18.90
2020,05,10,08,05,18.90
2020,05,10,08,06,18.90
2020,05,10,08,07,18.80
2020,05,10,08,08,18.80
2020,05,10,08,09,18.80
2020,05,10,08,10,18.80
2020,05,10,08,11,18.80
2020,05,10,08,12,18.80
2020,05,10,08,13,18.80
2020,05,10,08,14,18.80
2020,05,10,08,15,18.80
2020,05,10,08,16,18.80
2020,05,10,08,17,18.90
2020,05,10,08,18,18.90
2020,05,10,08,19,18.90
2020,05,10,08,20,18.90
2020,05,10,08,21,18.90
2020,05,10,08,22,19.00
2020,05,10,08,23,19.00
2020,05,10,08,24,19.10
2020,05,10,08,25,19.20
2020,05,10,08,26,19.20
2020,05,10,08,27,19.30
2020,05,10,08,28,19.30
2020,05,10,08,29,19.30
2020,05,10,08,30,19.40
2020,05,10,08,31,19.40
2020,05,10,08,32,19.40
2020,05,10,08,33,19.50
2020,05,10,08,34,19.50
2020,05,10,08,35,19.50
2020,05,10,08,36,19.60
2020,05,10,08,37,19.60
2020,05,10,08,38,19.70
2020,05,10,08,39,19.70
2020,05,10,08,40,19.80
2020,05,10,08,41,19.90
2020,05,10,08,42,19.90
2020,05,10,08,43,20.00
2020,05,10,08,44,20.00
2020,05,10,08,45,20.00
2020,05,10,08,46,20.10
2020,05,10,08,47,20.10
2020,05,10,08,48,20.20
2020,05,10,08,49,20.20
2020,05,10,08,50,20.30
2020,05,10,08,51,20.30
2020,05,10,08,52,20.40
2020,05,10,08,53,20.40
2020,05,10,08,54,20.40
2020,05,10,08,55,20.40
2020,05,10,08,56,20.40
2020,05,10,08,57,20.40
2020,05,10,08,58,20.30
2020,05,10,08,59,20.30
2020,05,10,09,00,20.20
2020,05,10,09,01,20.20
2020,05,10,09,02,20.20
2020,05,10,09,03,20.20
2020,05,10,09,04,20.20
2020,05,10,09,05,20.30
2020,05,10,09,06,20.30
2020,05,10,09,07,20.40
2020,05,10,09,08,20.40
2020,05,10,09,09,20.40
2020,05,10,09,10,20.50
2020,05,10,09,11,20.50
2020,05,10,09,12,20.50
2020,05,10,09,13,20.50
2020,05,10,09,14,20.50
2020,05,10,09,15,20.40
2020,05,10,09,16,20.40
2020,05,10,09,17,20.40
2020,05,10,09,18,20.40
2020,05,10,09,19,20.40
2020,05,10,09,20,20.40
2020,05,10,09,21,20.40
2020,05,10,09,22,20.40
2020,05,10,09,23,20.40
2020,05,10,09,24,20.50
2020,05,10,09,25,20.50
2020,05,10,09,26,20.50
2020,05,10,09,27,20.60
2020,05,10,09,28,20.50
2020,05,10,09,29,20.40
2020,05,10,09,30,20.40
2020,05,10,09,31,20.40
2020,05,10,09,32,20.50
2020,05,10,09,33,20.50
2020,05,10,09,34,20.60
2020,05,10,09,35,20.60
2020,05,10,09,36,20.70
2020,05,10,09,37,20.70
2020,05,10,09,38,20.60
2020,05,10,09,39,20.60
2020,05,10,09,40,20.50
2020,05,10,09,41,20.50
2020,05,10,09,42,20.60
2020,05,10,09,43,20.60
2020,05,10,09,44,20.70
2020,05,10,09,45,20.80
2020,05,10,09,46,20.90
2020,05,10,09,47,21.00
2020,05,10,09,48,21.00
2020,05,10,09,49,21.00
2020,05,10,09,50,21.00
2020,05,10,09,51,21.00
2020,05,10,09,52,20.90
2020,05,10,09,53,20.80
2020,05,10,09,54,20.80
2020,05,10,09,55,20.80
2020,05,10,09,56,20.70
2020,05,10,09,57,20.70
2020,05,10,09,58,20.70
2020,05,10,09,59,20.70
2020,05,10,10,00,20.70
2020,05,10,10,01,20.80
2020,05,10,10,02,20.80
2020,05,10,10,03,20.90
2020,05,10,10,04,20.90
2020,05,10,10,05,21.00
2020,05,10,10,06,21.10
2020,05,10,10,07,21.10
2020,05,10,10,08,21.10
2020,05,10,10,09,21.10
2020,05,10,10,10,21.10
2020,05,10,10,11,21.20
2020,05,10,10,12,21.30
2020,05,10,10,13,21.40
2020,05,10,10,14,21.40
2020,05,10,10,15,21.40
2020,05,10,10,16,21.40
2020,05,10,10,17,21.30
2020,05,10,10,18,21.30
2020,05,10,10,19,21.30
2020,05,10,10,20,21.20
2020,05,10,10,21,21.20
2020,05,10,10,22,21.20
2020,05,10,10,23,21.20
2020,05,10,10,24,21.20
2020,05,10,10,25,21.30
2020,05,10,10,26,21.30
2020,05,10,10,27,21.40
2020,05,10,10,28,21.40
2020,05,10,10,29,21.40
2020,05,10,10,30,21.50
2020,05,10,10,31,21.60
2020,05,10,10,32,21.60
2020,05,10,10,33,21.70
2020,05,10,10,34,21.70
2020,05,10,10,35,21.70
2020,05,10,10,36,21.80
2020,05,10,10,37,21.90
2020,05,10,10,38,22.00
2020,05,10,10,39,22.10
2020,05,10,10,40,22.30
2020,05,10,10,41,22.40
2020,05,10,10,42,22.40
2020,05,10,10,43,22.50
2020,05,10,10,44,22.40
2020,05,10,10,45,22.30
2020,05,10,10,46,22.20
2020,05,10,10,47,22.10
2020,05,10,10,48,22.00
2020,05,10,10,49,21.90
2020,05,10,10,50,21.90
2020,05,10,10,51,21.90
2020,05,10,10,52,21.90
2020,05,10,10,53,21.80
2020,05,10,10,54,21.80
2020,05,10,10,55,21.80
2020,05,10,10,56,21.80
2020,05,10,10,57,21.80
2020,05,10,10,58,21.90
2020,05,10,10,59,21.90
2020,05,10,11,00,22.00
2020,05,10,11,01,22.00
2020,05,10,11,02,22.00
2020,05,10,11,03,22.10
2020,05,10,11,04,22.10
2020,05,10,11,05,22.10
2020,05,10,11,06,22.10
2020,05,10,11,07,22.10
2020,05,10,11,08,22.20
2020,05,10,11,09,22.20
2020,05,10,11,10,22.20
2020,05,10,11,11,22.20
2020,05,10,11,12,22.20
2020,05,10,11,13,22.30
2020,05,10,11,14,22.30
2020,05,10,11,15,22.40
2020,05,10,11,16,22.50
2020,05,10,11,17,22.60
2020,05,10,11,18,22.80
2020,05,10,11,19,22.80
2020,05,10,11,20,22.90
2020,05,10,11,21,23.00
2020,05,10,11,22,23.10
2020,05,10,11,23,23.10
2020,05,10,11,24,23.20
2020,05,10,11,25,23.10
2020,05,10,11,26,23.10
2020,05,10,11,27,23.10
2020,05,10,11,28,23.00
2020,05,10,11,29,23.00
2020,05,10,11,30,22.90
2020,05,10,11,31,22.90
2020,05,10,11,32,23.00
2020,05,10,11,33,23.00
2020,05,10,11,34,23.10
2020,05,10,11,35,23.10
2020,05,10,11,36,23.00
2020,05,10,11,37,23.00
2020,05,10,11,38,23.10
2020,05,10,11,39,23.10
2020,05,10,11,40,23.00
2020,05,10,11,41,23.10
2020,05,10,11,42,23.10
2020,05,10,11,43,23.20
2020,05,10,11,44,23.30
2020,05,10,11,45,23.30
2020,05,10,11,46,23.40
2020,05,10,11,47,23.50
2020,05,10,11,48,23.50
2020,05,10,11,49,23.50
2020,05,10,11,50,23.50
2020,05,10,11,51,23.40
2020,05,10,11,52,23.30
2020,05,10,11,53,23.30
2020,05,10,11,54,23.30
2020,05,10,11,55,23.30
2020,05,10,11,56,23.30
2020,05,10,11,57,23.30
2020,05,10,11,58,23.30
2020,05,10,11,59,23.30
2020,05,10,12,00,23.30
2020,05,10,12,01,23.30
2020,05,10,12,02,23.30
2020,05,10,12,03,23.30
2020,05,10,12,04,23.30
2020,05,10,12,05,23.20
2020,05,10,12,06,23.20
2020,05,10,12,07,23.20
2020,05,10,12,08,23.20
2020,05,10,12,09,23.20
2020,05,10,12,10,23.20
2020,05,10,12,11,23.20
2020,05,10,12,12,23.20
2020,05,10,12,13,23.20
2020,05,10,12,14,23.20
2020,05,10,12,15,23.20
2020,05,10,12,16,23.20
2020,05,10,12,17,23.20
2020,05,10,12,18,23.20
2020,05,10,12,19,23.30
2020,05,10,12,20,23.30
2020,05,10,12,21,23.30
2020,05,10,12,22,23.30
2020,05,10,12,23,23.30
2020,05,10,12,24,23.30
2020,05,10,12,25,23.30
2020,05,10,12,26,23.40
2020,05,10,12,27,23.40
2020,05,10,12,28,23.50
2020,05,10,12,29,23.60
2020,05,10,12,30,23.70
2020,05,10,12,31,23.80
2020,05,10,12,32,23.80
2020,05,10,12,33,23.90
2020,05,10,12,34,23.90
2020,05,10,12,35,23.80
2020,05,10,12,36,23.80
2020,05,10,12,37,23.80
2020,05,10,12,38,23.80
2020,05,10,12,39,23.70
2020,05,10,12,40,23.70
2020,05,10,12,41,23.70
2020,05,10,12,42,23.70
2020,05,10,12,43,23.70
2020,05,10,12,44,23.80
2020,05,10,12,45,23.90
2020,05,10,12,46,24.00
2020,05,10,12,47,24.10
2020,05,10,12,48,24.10
2020,05,10,12,49,24.20
2020,05,10,12,50,24.20
2020,05,10,12,51,24.20
2020,05,10,12,52,24.20
2020,05,10,12,53,24.30
2020,05,10,12,54,24.40
2020,05,10,12,55,24.40
2020,05,10,12,56,24.40
2020,05,10,12,57,24.40
2020,05,10,12,58,24.40
2020,05,10,12,59,24.40
2020,05,10,13,00,24.50
2020,05,10,13,01,24.50
2020,05,10,13,02,24.40
2020,05,10,13,03,24.40
2020,05,10,13,04,24.30
2020,05,10,13,05,24.30
2020,05,10,13,06,24.30
2020,05,10,13,07,24.30
2020,05,10,13,08,24.30
2020,05,10,13,09,24.30
2020,05,10,13,10,24.30
2020,05,10,13,11,24.30
2020,05,10,13,12,24.20
2020,05,10,13,13,24.10
2020,05,10,13,14,24.10
2020,05,10,13,15,24.00
2020,05,10,13,16,24.00
2020,05,10,13,17,24.00
2020,05,10,13,18,24.00
2020,05,10,13,19,24.10
2020,05,10,13,20,24.20
2020,05,10,13,21,24.40
2020,05,10,13,22,24.60
2020,05,10,13,23,24.70
2020,05,10,13,24,24.90
2020,05,10,13,25,24.90
2020,05,10,13,26,25.00
2020,05,10,13,27,25.10
2020,05,10,13,28,25.20
2020,05,10,13,29,25.30
2020,05,10,13,30,25.40
2020,05,10,13,31,25.50
2020,05,10,13,32,25.60
2020,05,10,13,33,25.70
2020,05,10,13,34,25.60
2020,05,10,13,35,25.50
2020,05,10,13,36,25.50
2020,05,10,13,37,25.60
2020,05,10,13,38,25.60
2020,05,10,13,39,25.70
2020,05,10,13,40,25.70
2020,05,10,13,41,25.70
2020,05,10,13,42,25.70
2020,05,10,13,43,25.70
2020,05,10,13,44,25.70
2020,05,10,13,45,25.70
2020,05,10,13,46,25.60
2020,05,10,13,47,25.60
2020,05,10,13,48,25.50
2020,05,10,13,49,25.40
2020,05,10,13,50,25.40
2020,05,10,13,51,25.30
2020,05,10,13,52,25.30
2020,05,10,13,53,25.20
2020,05,10,13,54,25.20
2020,05,10,13,55,25.30
2020,05,10,13,56,25.30
2020,05,10,13,57,25.30
2020,05,10,13,58,25.40
2020,05,10,13,59,25.40
2020,05,10,14,00,25.50
2020,05,10,14,01,25.60
2020,05,10,14,02,25.60
2020,05,10,14,03,25.70
2020,05,10,14,04,25.70
2020,05,10,14,05,25.80
2020,05,10,14,06,25.80
2020,05,10,14,07,25.80
2020,05,10,14,08,25.80
2020,05,10,14,09,25.80
2020,05,10,14,10,25.80
2020,05,10,14,11,25.70
2020,05,10,14,12,25.70
2020,05,10,14,13,25.80
2020,05,10,14,14,25.80
2020,05,10,14,15,25.90
2020,05,10,14,16,26.00
2020,05,10,14,17,26.10
2020,05,10,14,18,26.10
2020,05,10,14,19,26.10
2020,05,10,14,20,26.10
2020,05,10,14,21,26.10
2020,05,10,14,22,26.10
2020,05,10,14,23,26.10
2020,05,10,14,24,26.10
2020,05,10,14,25,26.20
2020,05,10,14,26,26.20
2020,05,10,14,27,26.30
2020,05,10,14,28,26.30
2020,05,10,14,29,26.30
2020,05,10,14,30,26.30
2020,05,10,14,31,26.30
2020,05,10,14,32,26.30
2020,05,10,14,33,26.30
2020,05,10,14,34,26.30
2020,05,10,14,35,26.20
2020,05,10,14,36,26.20
2020,05,10,14,37,26.10
2020,05,10,14,38,26.10
2020,05,10,14,39,26.00
2020,05,10,14,40,26.00
2020,05,10,14,41,25.90
2020,05,10,14,42,25.90
2020,05,10,14,43,25.90
2020,05,10,14,44,25.90
2020,05,10,14,45,25.90
2020,05,10,14,46,25.90
2020,05,10,14,47,25.90
2020,05,10,14,48,25.90
2020,05,10,14,49,25.90
2020,05,10,14,50,25.90
2020,05,10,14,51,25.90
2020,05,10,14,52,25.90
2020,05,10,14,53,25.80
2020,05,10,14,54,25.80
2020,05,10,14,55,25.80
2020,05,10,14,56,25.80
2020,05,10,14,57,25.90
2020,05,10,14,58,25.90
2020,05,10,14,59,26.00
2020,05,10,15,00,26.10
2020,05,10,15,01,26.10
2020,05,10,15,02,26.10
2020,05,10,15,03,26.20
2020,05,10,15,04,26.30
2020,05,10,15,05,26.40
2020,05,10,15,06,26.50
2020,05,10,15,07,26.60
2020,05,10,15,08,26.60
2020,05,10,15,09,26.70
2020,05,10,15,10,26.70
2020,05,10,15,11,26.70
2020,05,10,15,12,26.70
2020,05,10,15,13,26.80
2020,05,10,15,14,26.80
2020,05,10,15,15,26.80
2020,05,10,15,16,26.80
2020,05,10,15,17,26.90
2020,05,10,15,18,27.00
2020,05,10,15,19,27.10
2020,05,10,15,20,27.10
2020,05,10,15,21,27.10
2020,05,10,15,22,27.20
2020,05,10,15,23,27.20
2020,05,10,15,24,27.30
2020,05,10,15,25,27.40
2020,05,10,15,26,27.50
2020,05,10,15,27,27.60
2020,05,10,15,28,27.60
2020,05,10,15,29,27.60
2020,05,10,15,30,27.50
2020,05,10,15,31,27.50
2020,05,10,15,32,27.50
2020,05,10,15,33,27.40
2020,05,10,15,34,27.40
2020,05,10,15,35,27.50
2020,05,10,15,36,27.50
2020,05,10,15,37,27.60
2020,05,10,15,38,27.60
2020,05,10,15,39,27.60
2020,05,10,15,40,27.60
2020,05,10,15,41,27.60
2020,05,10,15,42,27.50
2020,05,10,15,43,27.40
2020,05,10,15,44,27.40
2020,05,10,15,45,27.30
2020,05,10,15,46,27.30
2020,05,10,15,47,27.30
2020,05,10,15,48,27.30
2020,05,10,15,49,27.30
2020,05,10,15,50,27.30
2020,05,10,15,51,27.20
2020,05,10,15,52,27.00
2020,05,10,15,53,26.90
2020,05,10,15,54,26.90
2020,05,10,15,55,26.80
2020,05,10,15,56,26.80
2020,05,10,15,57,26.70
2020,05,10,15,58,26.70
2020,05,10,15,59,26.70
2020,05,10,16,00,26.70
2020,05,10,16,01,26.70
2020,05,10,16,02,26.70
2020,05,10,16,03,26.70
2020,05,10,16,04,26.70
2020,05,10,16,05,26.70
2020,05,10,16,06,26.70
2020,05,10,16,07,26.70
2020,05,10,16,08,26.70
2020,05,10,16,09,26.60
2020,05,10,16,10,26.60
2020,05,10,16,11,26.60
2020,05,10,16,12,26.70
2020,05,10,16,13,26.70
2020,05,10,16,14,26.70
2020,05,10,16,15,26.80
2020,05,10,16,16,26.80
2020,05,10,16,17,26.80
2020,05,10,16,18,26.80
2020,05,10,16,19,26.90
2020,05,10,16,20,26.90
2020,05,10,16,21,27.00
2020,05,10,16,22,27.00
2020,05,10,16,23,27.10
2020,05,10,16,24,27.10
2020,05,10,16,25,27.20
2020,05,10,16,26,27.20
2020,05,10,16,27,27.20
2020,05,10,16,28,27.20
2020,05,10,16,29,27.20
2020,05,10,16,30,27.20
2020,05,10,16,31,27.20
2020,05,10,16,32,27.30
2020,05,10,16,33,27.30
2020,05,10,16,34,27.40
2020,05,10,16,35,27.40
2020,05,10,16,36,27.40
2020,05,10,16,37,27.40
2020,05,10,16,38,27.40
2020,05,10,16,39,27.40
2020,05,10,16,40,27.30
2020,05,10,16,41,27.30
2020,05,10,16,42,27.20
2020,05,10,16,43,27.20
2020,05,10,16,44,27.20
2020,05,10,16,45,27.30
2020,05,10,16,46,27.30
2020,05,10,16,47,27.40
2020,05,10,16,48,27.40
2020,05,10,16,49,27.40
2020,05,10,16,50,27.40
2020,05,10,16,51,27.40
2020,05,10,16,52,27.40
2020,05,10,16,53,27.50
2020,05,10,16,54,27.50
2020,05,10,16,55,27.50
2020,05,10,16,56,27.50
2020,05,10,16,57,27.50
2020,05,10,16,58,27.50
2020,05,10,16,59,27.40
2020,05,10,17,00,27.40
2020,05,10,17,01,27.30
2020,05,10,17,02,27.30
2020,05,10,17,03,27.30
2020,05,10,17,04,27.20
2020,05,10,17,05,27.20
2020,05,10,17,06,27.10
2020,05,10,17,07,27.10
2020,05,10,17,08,27.10
2020,05,10,17,09,27.10
2020,05,10,17,10,27.00
2020,05,10,17,11,26.90
2020,05,10,17,12,26.90
2020,05,10,17,13,26.90
2020,05,10,17,14,26.90
2020,05,10,17,15,27.00
2020,05,10,17,16,27.10
2020,05,10,17,17,27.20
2020,05,10,17,18,27.20
2020,05,10,17,19,27.20